Location: Unspecified
(0.0000°N, 0.0000°E)
Time: 02:33:41
(UTC+00:00)

Tiros 1 - All Passes

Search period start: 21 December 2014 00:00
Search period end: 31 December 2014 00:00
Orbit: 632 x 667 km, 48.4° (Epoch: 19 December)

Date Brightness Start Highest point End Pass type
(mag) Time Alt. Az. Time Alt. Az. Time Alt. Az.
21 Dec - 09:06:05 10° NW 09:10:52 88° NE 09:15:37 10° SE daylight
21 Dec - 19:40:02 10° SSE 19:42:05 13° SE 19:44:07 10° ESE visible
21 Dec - 21:19:41 10° SW 21:24:11 49° NW 21:28:42 10° NNE visible
22 Dec - 07:51:46 10° N 07:55:36 24° NE 07:59:24 10° ESE daylight
22 Dec - 09:33:40 10° WNW 09:37:41 27° SW 09:41:42 10° S daylight
22 Dec - 20:04:35 10° SSW 20:08:58 42° SE 20:13:21 10° ENE visible
22 Dec - 21:48:26 10° W 21:51:04 15° NW 21:53:42 10° NNW night (unlit)
23 Dec - 08:17:40 10° NW 08:22:27 81° NE 08:27:12 10° SE daylight
23 Dec - 18:52:05 10° SSE 18:53:39 12° SE 18:55:14 10° ESE visible
23 Dec - 20:31:15 10° SW 20:35:46 54° NW 20:40:19 10° NNE visible
24 Dec - 07:03:29 10° N 07:07:10 22° NE 07:10:50 10° E daylight
24 Dec - 08:45:06 10° WNW 08:49:16 29° SW 08:53:24 10° S daylight
24 Dec - 19:16:14 10° SSW 19:20:33 38° SE 19:24:51 10° ENE visible
24 Dec - 20:59:46 10° W 21:02:38 16° NW 21:05:31 10° NNW visible
25 Dec - 07:29:14 10° NNW 07:34:00 74° NE 07:38:46 10° SE daylight
25 Dec - 18:04:22 10° SE 18:05:13 10° SE 18:06:04 10° ESE daylight
25 Dec - 19:42:47 10° SW 19:47:21 59° NW 19:51:55 10° NNE visible
26 Dec - 06:15:11 10° N 06:18:43 20° NE 06:22:14 10° E daylight
26 Dec - 07:56:33 10° WNW 08:00:49 32° SW 08:05:05 10° SSE daylight
26 Dec - 18:27:54 10° SSW 18:32:07 35° SE 18:36:20 10° ENE visible
26 Dec - 20:11:07 10° W 20:14:12 18° NW 20:17:17 10° N visible
27 Dec - 06:40:48 10° NNW 06:45:34 67° NE 06:50:19 10° SE daylight
27 Dec - 18:54:20 10° SW 18:58:55 65° NW 19:03:31 10° NNE visible
28 Dec - 05:26:55 10° N 05:30:16 19° NE 05:33:36 10° E visible
28 Dec - 07:08:00 10° WNW 07:12:22 35° SW 07:16:44 10° SSE daylight
28 Dec - 17:39:33 10° SSW 17:43:41 32° SE 17:47:48 10° ENE daylight
28 Dec - 19:22:29 10° W 19:25:45 19° NW 19:29:01 10° N visible
29 Dec - 05:52:22 10° NNW 05:57:06 61° NE 06:01:50 10° SE daylight
29 Dec - 07:38:02 10° WSW 07:39:16 11° SW 07:40:29 10° SW daylight
29 Dec - 18:05:52 10° SW 18:10:28 71° NW 18:15:05 10° NNE daylight
30 Dec - 04:38:39 10° N 04:41:47 17° NE 04:44:55 10° E visible
30 Dec - 06:19:26 10° WNW 06:23:54 38° SW 06:28:21 10° SSE daylight
30 Dec - 16:51:13 10° S 16:55:14 29° SE 16:59:14 10° ENE daylight
30 Dec - 18:33:51 10° W 18:37:17 21° NW 18:40:44 10° N visible
